| time (UTC) | temp C | wind direction | speed KPH | gust KPH | rain 1hr cm | rain 24hr cm | rain mn cm | humidity % | barometer mb |
| 20260509034420 | 11 | 348 | 3.2 | 6.4 | 0.00 | 0.89 | 0.00 | 85 | 1008.9 |
| 20260509033430 | 11 | 338 | 1.6 | 4.8 | 0.00 | 1.02 | 0.00 | 84 | 1008.8 |
| 20260509032902 | 11 | 343 | 1.6 | 6.4 | 0.00 | 1.19 | 0.00 | 83 | 1008.4 |
| 20260509031422 | 12 | 357 | 4.8 | 11.3 | 0.00 | 1.19 | 0.00 | 82 | 1008.9 |
| 20260509030420 | 11 | 357 | 6.4 | 6.4 | 0.00 | 1.22 | 0.00 | 83 | 1008.6 |
| 20260509025420 | 11 | 280 | 0.0 | 6.4 | 0.00 | 1.24 | 0.00 | 81 | 1008.5 |
| 20260509024419 | 12 | 344 | 1.6 | 6.4 | 0.00 | 1.27 | 0.00 | 79 | 1008.5 |
| 20260509023420 | 11 | 350 | 6.4 | 6.4 | 0.00 | 1.27 | 0.00 | 79 | 1009.0 |
| 20260509022855 | 11 | 344 | 3.2 | 9.7 | 0.00 | 1.30 | 0.00 | 79 | 1008.9 |
| 20260509021421 | 11 | 338 | 1.6 | 9.7 | 0.00 | 1.55 | 0.00 | 78 | 1008.6 |
| 20260509020420 | 11 | 325 | 3.2 | 6.4 | 0.00 | 1.78 | 0.00 | 79 | 1008.6 |
| 20260509015424 | 12 | 344 | 4.8 | 6.4 | 0.00 | 1.85 | 0.00 | 78 | 1009.0 |
| 20260509014419 | 12 | 340 | 3.2 | 4.8 | 0.00 | 1.91 | 0.00 | 78 | 1008.9 |
| 20260509013900 | 12 | 327 | 3.2 | 9.7 | 0.00 | 2.01 | 0.00 | 80 | 1008.9 |
| 20260509012430 | 12 | 199 | 0.0 | 6.4 | 0.00 | 2.11 | 0.00 | 76 | 1008.8 |
| 20260509011420 | 12 | 310 | 1.6 | 4.8 | 0.00 | 2.16 | 0.00 | 76 | 1008.9 |
| 20260509010420 | 12 | 245 | 0.0 | 6.4 | 0.00 | 2.18 | 0.00 | 79 | 1008.8 |
| 20260509005420 | 12 | 146 | 0.0 | 6.4 | 0.00 | 2.18 | 0.00 | 79 | 1008.8 |
| 20260509004859 | 12 | 332 | 1.6 | 6.4 | 0.00 | 2.21 | 0.00 | 79 | 1008.8 |
| 20260509003420 | 12 | 240 | 0.0 | 4.8 | 0.00 | 2.21 | 0.00 | 77 | 1009.0 |
| 20260509002421 | 12 | 23 | 0.0 | 3.2 | 0.00 | 2.24 | 0.00 | 75 | 1009.0 |
| 20260509002348 | 13 | 288 | 0.0 | 6.4 | 0.00 | 2.29 | 0.00 | 73 | 1008.8 |
| 20260509000856 | 13 | 319 | 3.2 | 9.7 | 0.00 | 2.29 | 0.00 | 71 | 1008.8 |
| 20260508235420 | 12 | 302 | 0.0 | 4.8 | 0.00 | 2.29 | 0.00 | 73 | 1009.0 |
| 20260508234418 | 13 | 201 | 0.0 | 11.3 | 0.00 | 2.29 | 0.00 | 71 | 1008.9 |
| 20260508233420 | 13 | 12 | 6.4 | 12.9 | 0.00 | 2.31 | 0.00 | 71 | 1009.0 |
| 20260508232421 | 13 | 296 | 6.4 | 12.9 | 0.00 | 2.41 | 0.00 | 70 | 1008.9 |
| 20260508231432 | 13 | 323 | 3.2 | 14.5 | 0.00 | 2.54 | 0.00 | 71 | 1009.0 |
| 20260508230420 | 13 | 258 | 1.6 | 16.1 | 0.00 | 2.54 | 0.00 | 71 | 1009.1 |
| 20260508225421 | 13 | 318 | 1.6 | 27.4 | 0.00 | 2.54 | 2.54 | 71 | 1009.0 |
| 20260508224420 | 13 | 346 | 4.8 | 16.1 | 0.00 | 2.54 | 2.54 | 71 | 1008.5 |
| 20260508223421 | 13 | 338 | 12.9 | 17.7 | 0.00 | 2.54 | 2.54 | 72 | 1008.5 |
| 20260508222420 | 13 | 3 | 14.5 | 22.5 | 0.00 | 2.54 | 2.54 | 71 | 1008.2 |
| 20260508221421 | 13 | 116 | 3.2 | 6.4 | 0.00 | 2.54 | 2.54 | 74 | 1008.2 |
| 20260508220421 | 13 | 318 | 1.6 | 11.3 | 0.00 | 2.54 | 2.54 | 73 | 1008.3 |
| 20260508215420 | 13 | 217 | 3.2 | 11.3 | 0.00 | 2.54 | 2.54 | 71 | 1008.2 |
| 20260508214419 | 13 | 116 | 3.2 | 11.3 | 0.00 | 2.54 | 2.54 | 72 | 1008.3 |
| 20260508213420 | 13 | 355 | 1.6 | 9.7 | 0.00 | 2.54 | 2.54 | 72 | 1008.1 |
| 20260508212421 | 13 | 78 | 4.8 | 16.1 | 0.00 | 2.54 | 2.54 | 69 | 1007.9 |
| 20260508211421 | 13 | 228 | 0.0 | 12.9 | 0.00 | 2.54 | 2.54 | 76 | 1007.8 |
| 20260508210420 | 13 | 308 | 1.6 | 6.4 | 0.00 | 2.54 | 2.54 | 75 | 1007.6 |
| 20260508205419 | 13 | 337 | 3.2 | 12.9 | 0.00 | 2.54 | 2.54 | 75 | 1007.2 |
| 20260508204420 | 13 | 223 | 0.0 | 9.7 | 0.00 | 2.54 | 2.54 | 77 | 1007.0 |
| 20260508203420 | 13 | 308 | 0.0 | 6.4 | 0.00 | 2.54 | 2.54 | 79 | 1006.8 |
| 20260508202418 | 12 | 332 | 1.6 | 11.3 | 0.00 | 2.54 | 2.54 | 80 | 1006.9 |
| 20260508201419 | 13 | 14 | 6.4 | 14.5 | 0.00 | 2.54 | 2.54 | 79 | 1006.9 |
| 20260508200907 | 13 | 341 | 4.8 | 9.7 | 0.00 | 2.54 | 2.54 | 79 | 1006.8 |
| 20260508195420 | 13 | 4 | 3.2 | 17.7 | 0.00 | 2.54 | 2.54 | 79 | 1006.3 |
| 20260508194912 | 13 | 350 | 4.8 | 11.3 | 0.00 | 2.54 | 2.54 | 80 | 1006.4 |
| 20260508193421 | 13 | 333 | 12.9 | 16.1 | 0.00 | 2.54 | 2.54 | 80 | 1006.3 |
| 20260508192420 | 13 | 347 | 6.4 | 17.7 | 0.03 | 2.54 | 2.54 | 81 | 1006.3 |
| 20260508191859 | 12 | 310 | 3.2 | 17.7 | 0.10 | 2.54 | 2.54 | 81 | 1006.3 |
| 20260508190422 | 12 | 347 | 3.2 | 14.5 | 0.15 | 2.54 | 2.54 | 82 | 1006.3 |
| 20260508185419 | 12 | 322 | 4.8 | 16.1 | 0.15 | 2.54 | 2.54 | 85 | 1006.2 |
| 20260508184420 | 12 | 71 | 3.2 | 12.9 | 0.15 | 2.54 | 2.54 | 87 | 1006.4 |
| 20260508183405 | 12 | 328 | 3.2 | 16.1 | 0.15 | 2.54 | 2.54 | 90 | 1006.5 |
| 20260508182405 | 12 | 79 | 3.2 | 6.4 | 0.08 | 2.46 | 2.49 | 89 | 1006.4 |
| 20260508181406 | 12 | 319 | 6.4 | 11.3 | 0.05 | 2.44 | 2.44 | 88 | 1006.5 |
| 20260508180406 | 13 | 341 | 3.2 | 16.1 | 0.00 | 2.39 | 2.39 | 84 | 1006.4 |
| 20260508175406 | 13 | 67 | 6.4 | 29.0 | 0.00 | 2.39 | 2.39 | 78 | 1006.3 |
| 20260508174406 | 13 | 340 | 3.2 | 20.9 | 0.00 | 2.39 | 2.39 | 76 | 1006.4 |
| 20260508173406 | 13 | 38 | 3.2 | 12.9 | 0.00 | 2.39 | 2.39 | 75 | 1006.3 |
| 20260508172844 | 13 | 92 | 1.6 | 17.7 | 0.00 | 2.39 | 2.39 | 73 | 1006.5 |
| 20260508171407 | 14 | 349 | 6.4 | 20.9 | 0.00 | 2.39 | 2.39 | 74 | 1006.5 |
| 20260508170406 | 13 | 317 | 8.0 | 24.1 | 0.00 | 2.39 | 2.39 | 74 | 1006.5 |
| 20260508165406 | 13 | 20 | 8.0 | 25.7 | 0.00 | 2.39 | 2.39 | 74 | 1006.4 |
| 20260508164406 | 14 | 320 | 3.2 | 12.9 | 0.00 | 2.39 | 2.39 | 73 | 1006.4 |
| 20260508163406 | 14 | 344 | 3.2 | 24.1 | 0.00 | 2.39 | 2.39 | 72 | 1006.5 |
| 20260508162406 | 15 | 20 | 14.5 | 20.9 | 0.00 | 2.39 | 2.39 | 66 | 1006.2 |
| 20260508161407 | 15 | 356 | 9.7 | 25.7 | 0.00 | 2.39 | 2.39 | 65 | 1006.1 |
| 20260508160406 | 15 | 241 | 4.8 | 22.5 | 0.00 | 2.39 | 2.39 | 68 | 1006.1 |
| 20260508155406 | 15 | 278 | 4.8 | 17.7 | 0.00 | 2.39 | 2.39 | 71 | 1005.8 |
| 20260508154844 | 15 | 325 | 6.4 | 25.7 | 0.00 | 2.39 | 2.39 | 68 | 1006.3 |
| 20260508153406 | 15 | 74 | 8.0 | 16.1 | 0.00 | 2.39 | 2.39 | 68 | 1006.4 |
| 20260508152406 | 15 | 327 | 1.6 | 20.9 | 0.00 | 2.39 | 2.39 | 71 | 1006.4 |
| 20260508151407 | 16 | 160 | 6.4 | 27.4 | 0.00 | 2.39 | 2.39 | 68 | 1006.3 |
| 20260508150406 | 16 | 359 | 4.8 | 17.7 | 0.00 | 2.39 | 2.39 | 67 | 1006.3 |
| 20260508145406 | 16 | 74 | 6.4 | 29.0 | 0.00 | 2.39 | 2.39 | 70 | 1006.1 |
| 20260508144406 | 16 | 226 | 3.2 | 24.1 | 0.00 | 2.39 | 2.39 | 68 | 1006.5 |
| 20260508144332 | 16 | 30 | 3.2 | 17.7 | 0.00 | 2.39 | 2.39 | 69 | 1006.4 |
| 20260508142407 | 16 | 31 | 3.2 | 16.1 | 0.00 | 2.39 | 2.39 | 66 | 1006.4 |
| 20260508141419 | 16 | 350 | 4.8 | 20.9 | 0.00 | 2.39 | 2.39 | 67 | 1006.5 |
| 20260508140406 | 16 | 115 | 14.5 | 17.7 | 0.00 | 2.39 | 2.39 | 65 | 1006.5 |
| 20260508135406 | 16 | 103 | 4.8 | 12.9 | 0.00 | 2.39 | 2.39 | 67 | 1006.8 |
| 20260508134406 | 16 | 302 | 4.8 | 20.9 | 0.00 | 2.39 | 2.39 | 69 | 1006.8 |
| 20260508133406 | 15 | 333 | 6.4 | 22.5 | 0.00 | 2.39 | 2.39 | 73 | 1006.8 |
| 20260508132405 | 15 | 252 | 3.2 | 16.1 | 0.00 | 2.39 | 2.39 | 73 | 1006.7 |
| 20260508131406 | 15 | 115 | 1.6 | 20.9 | 0.00 | 2.39 | 2.39 | 73 | 1006.8 |
| 20260508130406 | 16 | 27 | 6.4 | 17.7 | 0.00 | 2.39 | 2.39 | 70 | 1007.1 |
| 20260508125407 | 15 | 12 | 0.0 | 16.1 | 0.00 | 2.39 | 2.39 | 73 | 1007.1 |
| 20260508124406 | 16 | 189 | 1.6 | 14.5 | 0.00 | 2.39 | 2.39 | 70 | 1006.8 |
| 20260508123406 | 16 | 343 | 4.8 | 12.9 | 0.00 | 2.39 | 2.39 | 69 | 1006.9 |
| 20260508122406 | 16 | 14 | 4.8 | 20.9 | 0.00 | 2.39 | 2.39 | 71 | 1006.9 |
| 20260508122322 | 16 | 126 | 8.0 | 16.1 | 0.00 | 2.39 | 2.39 | 73 | 1007.1 |
| 20260508120407 | 16 | 321 | 3.2 | 11.3 | 0.00 | 2.39 | 2.39 | 74 | 1007.0 |
| 20260508115845 | 16 | 260 | 1.6 | 17.7 | 0.00 | 2.39 | 2.39 | 75 | 1007.2 |
| 20260508114406 | 15 | 256 | 6.4 | 12.9 | 0.00 | 2.39 | 2.39 | 78 | 1007.1 |
| 20260508113406 | 15 | 284 | 1.6 | 11.3 | 0.00 | 2.39 | 2.39 | 80 | 1007.2 |
| 20260508112406 | 15 | 147 | 1.6 | 9.7 | 0.00 | 2.39 | 2.39 | 77 | 1007.3 |
| 20260508111843 | 14 | 231 | 3.2 | 9.7 | 0.00 | 2.39 | 2.39 | 80 | 1007.3 |
| 20260508110419 | 13 | 286 | 1.6 | 22.5 | 0.00 | 2.39 | 2.39 | 81 | 1007.4 |
| 20260508105406 | 15 | 0 | 0.0 | 11.3 | 0.00 | 2.39 | 2.39 | 82 | 1007.5 |
| 20260508104406 | 15 | 129 | 1.6 | 12.9 | 0.00 | 2.39 | 2.39 | 79 | 1007.5 |
| 20260508103405 | 15 | 285 | 0.0 | 17.7 | 0.00 | 2.39 | 2.39 | 79 | 1007.4 |
| 20260508102406 | 15 | 177 | 14.5 | 20.9 | 0.00 | 2.39 | 2.39 | 75 | 1007.0 |
| 20260508101406 | 15 | 194 | 3.2 | 14.5 | 0.00 | 2.39 | 2.39 | 76 | 1007.1 |
| 20260508100406 | 15 | 259 | 1.6 | 14.5 | 0.00 | 2.39 | 2.39 | 78 | 1007.0 |
| 20260508095848 | 13 | 307 | 1.6 | 22.5 | 0.00 | 2.39 | 2.39 | 78 | 1007.3 |
| 20260508094406 | 15 | 271 | 8.0 | 16.1 | 0.05 | 2.39 | 2.39 | 73 | 1007.2 |
| 20260508093407 | 14 | 354 | 8.0 | 27.4 | 0.08 | 2.39 | 2.39 | 75 | 1006.9 |
| 20260508092406 | 13 | 55 | 4.8 | 12.9 | 0.15 | 2.39 | 2.39 | 79 | 1007.0 |
| 20260508091408 | 12 | 334 | 1.6 | 17.7 | 0.23 | 2.39 | 2.39 | 83 | 1006.9 |
| 20260508090406 | 12 | 351 | 4.8 | 11.3 | 0.38 | 2.39 | 2.39 | 88 | 1007.2 |
| 20260508085406 | 11 | 338 | 8.0 | 14.5 | 0.38 | 2.39 | 2.39 | 87 | 1007.5 |
| 20260508084405 | 11 | 337 | 6.4 | 22.5 | 0.33 | 2.34 | 2.34 | 87 | 1007.2 |
| 20260508083406 | 11 | 8 | 6.4 | 16.1 | 0.30 | 2.31 | 2.31 | 86 | 1007.3 |
| 20260508082753 | 15 | 42 | 0.0 | 6.4 | 0.15 | 2.16 | 2.16 | 76 | 1007.1 |
| 20260508082429 | 12 | 48 | 3.2 | 11.3 | 0.23 | 2.24 | 2.26 | 84 | 1007.2 |
| 20260508080354 | 14 | 238 | 1.6 | 11.3 | 0.00 | 2.01 | 2.01 | 75 | 1006.8 |
| 20260508075357 | 13 | 100 | 1.6 | 11.3 | 0.00 | 2.01 | 2.01 | 77 | 1006.4 |
| 20260508074354 | 13 | 206 | 4.8 | 9.7 | 0.00 | 2.01 | 2.01 | 75 | 1006.7 |
| 20260508073355 | 13 | 17 | 6.4 | 11.3 | 0.00 | 2.01 | 2.01 | 76 | 1006.7 |
| 20260508072354 | 12 | 229 | 3.2 | 12.9 | 0.00 | 2.01 | 2.01 | 76 | 1006.1 |
| 20260508071836 | 12 | 1 | 1.6 | 16.1 | 0.00 | 2.01 | 2.01 | 77 | 1006.1 |
| 20260508070354 | 11 | 322 | 4.8 | 14.5 | 0.00 | 2.01 | 2.01 | 78 | 1006.3 |
| 20260508065831 | 12 | 307 | 3.2 | 16.1 | 0.00 | 2.01 | 2.01 | 75 | 1006.2 |
| 20260508064354 | 12 | 9 | 6.4 | 16.1 | 0.00 | 2.01 | 2.01 | 76 | 1006.0 |
| 20260508063354 | 11 | 341 | 6.4 | 14.5 | 0.00 | 2.01 | 2.01 | 76 | 1006.0 |
| 20260508062354 | 11 | 289 | 4.8 | 17.7 | 0.00 | 2.01 | 2.01 | 73 | 1006.0 |
| 20260508061354 | 11 | 260 | 4.8 | 14.5 | 0.05 | 2.01 | 2.01 | 72 | 1005.8 |
| 20260508060353 | 11 | 246 | 3.2 | 16.1 | 0.05 | 2.01 | 2.01 | 74 | 1006.1 |
| 20260508055354 | 11 | 315 | 4.8 | 14.5 | 0.18 | 2.01 | 2.01 | 76 | 1005.9 |
| 20260508054345 | 11 | 359 | 8.0 | 24.1 | 0.23 | 2.01 | 2.01 | 81 | 1006.1 |
| 20260508054259 | 11 | 31 | 12.9 | 22.5 | 0.23 | 2.01 | 2.01 | 93 | 1005.9 |
| 20260508052342 | 11 | 19 | 6.4 | 16.1 | 0.23 | 2.01 | 2.01 | 96 | 1006.3 |
| 20260508051342 | 11 | 32 | 6.4 | 22.5 | 0.18 | 1.96 | 1.96 | 97 | 1006.5 |
| 20260508050343 | 12 | 333 | 6.4 | 14.5 | 0.20 | 1.96 | 1.96 | 97 | 1006.4 |
| 20260508045342 | 12 | 39 | 0.0 | 9.7 | 0.10 | 1.83 | 1.83 | 97 | 1006.2 |
| 20260508044344 | 12 | 53 | 4.8 | 6.4 | 0.15 | 1.78 | 1.78 | 97 | 1006.4 |
| 20260508043342 | 12 | 123 | 4.8 | 11.3 | 0.25 | 1.78 | 1.78 | 97 | 1006.3 |
| 20260508042342 | 12 | 159 | 3.2 | 11.3 | 0.43 | 1.78 | 1.78 | 97 | 1006.4 |
| 20260508041342 | 12 | 346 | 1.6 | 11.3 | 0.46 | 1.78 | 1.78 | 97 | 1006.8 |
| 20260508040342 | 12 | 160 | 4.8 | 11.3 | 0.43 | 1.75 | 1.75 | 97 | 1006.9 |
| 20260508035342 | 12 | 91 | 8.0 | 12.9 | 0.43 | 1.73 | 1.73 | 97 | 1006.9 |